THORAD DELTA 1 DEB, 13527

Orbit data source: Space-Track

THORAD DELTA 1 DEB, 13527 is space debris in SSO originally from a launch on Fri, 15 Nov 1974 UTC launched from the Air Force Western Test Range (AFWTR). Debris objects in space refer to the collection of defunct objects orbiting the Earth. Examples of debris include non-operational satellites, rocket bodies, and fragments generated from explosions, collisions, or faulty payload assembly.

Loading next visibility...
Identifier
13527, 1974-089EN
Orbit
SSO
Country
Flag of USUS
Related business
Manufacturer
Unknown
Mission
Spacecraft
Bus & Motor
Unknown
Mass
Unknown
Launch date (UTC)
1974-11-15 (51 years ago)
Launch vehicle
Unknown
Launch site
Air Force Western Test Range (AFWTR)
Object type
Payload
Rocket body
Debris
Shape & HBR
Unknown shape, 0.1 m
Radar Cross Section
Small (<0.1 m²)

Expand to show TLE details & history
Last TLE update: 2 days ago

TLE from 2 days ago
0 THORAD DELTA 1 DEB
1 13527U 74089EN  25302.92498139  .00001303  00000-0  78845-2 0  9994
2 13527 102.9034 278.0087 0342910 297.5031  84.4661 12.43444315 42205
Epoch: 2025-10-29T22:11Z
TLE epoch observation values (Epoch: 2025-10-29T22:11:58.392Z)
Latitude
25.22326°
Longitude
-99.64047°
Altitude
1,477.918 km
Speed
7.134 km/s
True Right ascension
18h 07m 22s
True Declination
25° 06' 11"
Sunlit
Object was in daylight at epoch
Visualization orbit readout
Latitude
Unknown
Longitude
Unknown
Altitude
Unknown
Speed
Unknown
Apparent Right ascension
Unknown
Apparent Declination
Unknown
Sunlit
N/A
Visualization observer readout
Local Sidereal Time
12:24:35
Azimuth
Unknown
Elevation
Unknown
Doppler factor
Unknown
Orbital elements
Apogee altitude
1,759.452 km
Perigee altitude
1,219.863 km
Semi-major axis
7,867.795 km
Eccentricity
0.03429
Inclination
102.9034°
RAAN
278.0087°
Arg. of periapsis
297.5031°
True anomaly
88.3904°
Mean anomaly
84.4661°
Eccentric anomaly
86.42701°
Mean motion
3.11002 °/min
Orbital period
115.75 mins
BSTAR
0.0078845
Loading maneuver chart data...
Computing Atmospheric mass density...

Documentation

Showing up to 5 results
|